,,PA_Meas_PMT16A,,PR_Meas_QMR101_102,,RH_Meas_QMH101,,SR_Meas_QMS101,,TA_Meas_QMH101,,GenWind,,GenWind,
time,status,PA,status,PR,status,RH,status,SR,status,TA,status,DirAvg,status,SpdAvg,
2011-08-23, 00:00:05,VALID,918.727,VALID,0,VALID,97.5111,VALID,0,VALID,18.9814,VALID,15,VALID,0.904688,
2011-08-23, 00:01:05,VALID,918.701,VALID,0,VALID,97.5492,VALID,0,VALID,18.9619,VALID,15,VALID,0.694922,
2011-08-23, 00:02:05,VALID,918.7,VALID,0,VALID,97.5264,VALID,0,VALID,18.9619,VALID,15,VALID,0.739844,
2011-08-23, 00:03:05,VALID,918.655,VALID,0,VALID,97.5569,VALID,0,VALID,18.9229,VALID,15,VALID,0.594922,
2011-08-23, 00:04:05,VALID,918.641,VALID,0,VALID,97.5569,VALID,0,VALID,18.9229,VALID,15,VALID,0.775391,
2011-08-23, 00:05:05,VALID,918.665,VALID,0,VALID,97.5645,VALID,0,VALID,18.9034,VALID,15,VALID,0.799219,
2011-08-23, 00:06:05,VALID,918.646,VALID,0,VALID,97.5492,VALID,0,VALID,18.8839,VALID,15,VALID,0.542578,
2011-08-23, 00:07:05,VALID,918.612,VALID,0,VALID,97.5797,VALID,0,VALID,18.8839,VALID,15,VALID,0.419141,
2011-08-23, 00:08:05,VALID,918.603,VALID,0,VALID,97.5797,VALID,0,VALID,18.9619,VALID,15,VALID,0.579687,
2011-08-23, 00:09:05,VALID,918.62,VALID,0,VALID,97.5797,VALID,0,VALID,18.9619,VALID,15,VALID,0.860547,
2011-08-23, 00:10:05,VALID,918.595,VALID,0,VALID,97.595,VALID,0,VALID,18.9619,VALID,15,VALID,0.826953,
2011-08-23, 00:11:05,VALID,918.616,VALID,0,VALID,97.6102,VALID,0,VALID,18.9619,VALID,108,VALID,0.935938,
2011-08-23, 00:12:05,VALID,918.573,VALID,0,VALID,97.6026,VALID,0,VALID,18.9619,VALID,108,VALID,1.01055,
2011-08-23, 00:13:05,VALID,918.544,VALID,0,VALID,97.6102,VALID,0,VALID,18.9799,VALID,108,VALID,0.832422,
2011-08-23, 00:14:05,VALID,918.538,VALID,0,VALID,97.6178,VALID,0,VALID,19.0008,VALID,108,VALID,0.699609,
2011-08-23, 00:15:05,VALID,918.523,VALID,0,VALID,97.5873,VALID,0,VALID,19.0008,VALID,108,VALID,0.358984,
2011-08-23, 00:16:05,VALID,918.514,VALID,0,VALID,97.6178,VALID,0,VALID,19.0203,VALID,108,VALID,0.217187,
2011-08-23, 00:17:05,VALID,918.5,VALID,0,VALID,97.6026,VALID,0,VALID,19.0398,VALID,108,VALID,0.325781,
2011-08-23, 00:18:05,VALID,918.526,VALID,0,VALID,97.595,VALID,0,VALID,19.0189,VALID,108,VALID,0.29375,
2011-08-23, 00:19:05,VALID,918.528,VALID,0,VALID,97.6026,VALID,0,VALID,19.0593,VALID,108,VALID,0.786328,
2011-08-23, 00:20:05,VALID,918.54,VALID,0,VALID,97.595,VALID,0,VALID,19.0593,VALID,108,VALID,0.664844,
2011-08-23, 00:21:05,VALID,918.532,VALID,0,VALID,97.6026,VALID,0,VALID,19.0983,VALID,108,VALID,0.516406,
2011-08-23, 00:22:05,VALID,918.524,VALID,0,VALID,97.6102,VALID,0,VALID,19.0983,VALID,108,VALID,0.184375,
2011-08-23, 00:23:05,VALID,918.518,VALID,0,VALID,97.6026,VALID,0,VALID,19.0983,VALID,108,VALID,0,
2011-08-23, 00:24:05,VALID,918.519,VALID,0,VALID,97.6102,VALID,0,VALID,19.1164,VALID,107,VALID,0.202734,
2011-08-23, 00:25:05,VALID,918.503,VALID,0,VALID,97.6026,VALID,0,VALID,19.0954,VALID,108,VALID,0.198828,
2011-08-23, 00:26:05,VALID,918.503,VALID,0,VALID,97.595,VALID,0,VALID,19.1164,VALID,108,VALID,0.505859,
2011-08-23, 00:27:05,VALID,918.46,VALID,0,VALID,97.5873,VALID,0,VALID,19.1164,VALID,108,VALID,0.833984,
2011-08-23, 00:28:05,VALID,918.412,VALID,0,VALID,97.6026,VALID,0,VALID,19.0774,VALID,108,VALID,0.828516,
2011-08-23, 00:29:05,VALID,918.416,VALID,0,VALID,97.595,VALID,0,VALID,19.0774,VALID,108,VALID,0.822266,
2011-08-23, 00:30:05,VALID,918.395,VALID,0,VALID,97.595,VALID,0,VALID,19.0774,VALID,108,VALID,0.447266,
2011-08-23, 00:31:05,VALID,918.371,VALID,0,VALID,97.5797,VALID,0,VALID,19.0774,VALID,108,VALID,0.680859,
2011-08-23, 00:32:05,VALID,918.35,VALID,0,VALID,97.5721,VALID,0,VALID,19.0579,VALID,108,VALID,0.747656,
2011-08-23, 00:33:05,VALID,918.336,VALID,0,VALID,97.5797,VALID,0.107441,VALID,19.0579,VALID,108,VALID,0.769922,
2011-08-23, 00:34:05,VALID,918.312,VALID,0,VALID,97.6026,VALID,0,VALID,19.0189,VALID,108,VALID,0.713672,
2011-08-23, 00:35:05,VALID,918.314,VALID,0,VALID,97.595,VALID,0,VALID,19.0189,VALID,107,VALID,0.827734,
2011-08-23, 00:36:05,VALID,918.264,VALID,0,VALID,97.5873,VALID,0,VALID,19.0203,VALID,107,VALID,0.541406,
2011-08-23, 00:37:05,VALID,918.271,VALID,0,VALID,97.5873,VALID,0,VALID,19.0203,VALID,108,VALID,0.814062,
2011-08-23, 00:38:05,VALID,918.25,VALID,0,VALID,97.595,VALID,0,VALID,18.9799,VALID,108,VALID,0.394531,
2011-08-23, 00:39:05,VALID,918.266,VALID,0,VALID,97.6331,VALID,0,VALID,18.9604,VALID,108,VALID,0.383203,
2011-08-23, 00:40:05,VALID,918.231,VALID,0,VALID,97.6178,VALID,0,VALID,18.9799,VALID,108,VALID,0.519141,
2011-08-23, 00:41:05,VALID,918.188,VALID,0,VALID,97.595,VALID,0,VALID,18.9604,VALID,108,VALID,0.29375,
2011-08-23, 00:42:05,VALID,918.191,VALID,0,VALID,97.6102,VALID,0.107441,VALID,18.9409,VALID,108,VALID,0.197266,
2011-08-23, 00:43:05,VALID,918.148,VALID,0,VALID,97.595,VALID,0.107441,VALID,18.9019,VALID,108,VALID,0.323828,
2011-08-23, 00:44:05,VALID,918.136,VALID,0,VALID,97.6178,VALID,0,VALID,18.9019,VALID,108,VALID,0.396484,
2011-08-23, 00:45:05,VALID,918.105,VALID,0,VALID,97.6255,VALID,0.107441,VALID,18.9019,VALID,108,VALID,0.303125,
2011-08-23, 00:46:05,VALID,918.096,VALID,0,VALID,97.5873,VALID,0,VALID,18.9424,VALID,108,VALID,0.224609,
2011-08-23, 00:47:05,VALID,918.073,VALID,0,VALID,97.6178,VALID,0,VALID,18.9604,VALID,107,VALID,0.00703125,
2011-08-23, 00:48:05,VALID,918.054,VALID,0,VALID,97.6407,VALID,0.107441,VALID,18.9799,VALID,107,VALID,0.138281,
2011-08-23, 00:49:05,VALID,918.004,VALID,0,VALID,97.6102,VALID,0.107441,VALID,18.9994,VALID,108,VALID,0,
2011-08-23, 00:50:05,VALID,918.025,VALID,0,VALID,97.6255,VALID,0.107441,VALID,19.0189,VALID,108,VALID,0.223438,
2011-08-23, 00:51:05,VALID,917.998,VALID,0,VALID,97.6255,VALID,0.107441,VALID,18.9994,VALID,107,VALID,0.129297,
2011-08-23, 00:52:05,VALID,917.98,VALID,0,VALID,97.6255,VALID,0.107441,VALID,18.9994,VALID,108,VALID,0,
2011-08-23, 00:53:05,VALID,917.981,VALID,0,VALID,97.6178,VALID,0.107441,VALID,18.9799,VALID,108,VALID,0,
2011-08-23, 00:54:05,VALID,917.991,VALID,0,VALID,97.6178,VALID,0,VALID,18.8839,VALID,108,VALID,0.152344,
2011-08-23, 00:55:05,VALID,917.983,VALID,0,VALID,97.595,VALID,0,VALID,18.8059,VALID,108,VALID,0.180078,
2011-08-23, 00:56:05,VALID,917.99,VALID,0,VALID,97.6026,VALID,0,VALID,18.7669,VALID,108,VALID,0.500781,
2011-08-23, 00:57:05,VALID,918.042,VALID,0,VALID,97.5797,VALID,0,VALID,18.7474,VALID,108,VALID,0.658594,
2011-08-23, 00:58:05,VALID,918.028,VALID,0,VALID,97.595,VALID,0,VALID,18.7669,VALID,108,VALID,0.650391,
2011-08-23, 00:59:05,VALID,918.028,VALID,0,VALID,97.6026,VALID,0,VALID,18.7279,VALID,108,VALID,0.608594,
2011-08-23, 01:00:05,VALID,918.034,VALID,0,VALID,97.6178,VALID,0,VALID,18.7683,VALID,108,VALID,0.476172,
2011-08-23, 01:01:05,VALID,918.036,VALID,0,VALID,97.6255,VALID,0,VALID,18.7864,VALID,108,VALID,0.591797,
2011-08-23, 01:02:05,VALID,917.999,VALID,0,VALID,97.6102,VALID,0,VALID,18.8449,VALID,108,VALID,0.312109,
2011-08-23, 01:03:05,VALID,918.017,VALID,0,VALID,97.6407,VALID,0,VALID,18.9048,VALID,108,VALID,0.183594,
2011-08-23, 01:04:05,VALID,918.027,VALID,0,VALID,97.6483,VALID,0,VALID,18.8839,VALID,108,VALID,0.425391,
2011-08-23, 01:05:05,VALID,918.021,VALID,0,VALID,97.6483,VALID,0,VALID,18.8853,VALID,108,VALID,0.135937,
2011-08-23, 01:06:05,VALID,918.043,VALID,0,VALID,97.6407,VALID,0,VALID,18.8449,VALID,108,VALID,0,
2011-08-23, 01:07:05,VALID,918.009,VALID,0,VALID,97.6407,VALID,0,VALID,18.9048,VALID,108,VALID,0.108594,
2011-08-23, 01:08:05,VALID,918.028,VALID,0,VALID,97.6712,VALID,0,VALID,18.9229,VALID,108,VALID,0,
2011-08-23, 01:09:05,VALID,918.014,VALID,0,VALID,97.656,VALID,0,VALID,18.9438,VALID,108,VALID,0,
2011-08-23, 01:10:05,VALID,918.019,VALID,0,VALID,97.656,VALID,0,VALID,18.8839,VALID,108,VALID,0,
2011-08-23, 01:11:05,VALID,917.996,VALID,0,VALID,97.6255,VALID,0,VALID,18.8449,VALID,108,VALID,0.0484375,
2011-08-23, 01:12:05,VALID,918.01,VALID,0,VALID,97.656,VALID,0,VALID,18.8254,VALID,108,VALID,0.0730469,
2011-08-23, 01:13:05,VALID,917.973,VALID,0,VALID,97.6788,VALID,0,VALID,18.8073,VALID,108,VALID,0,
2011-08-23, 01:14:05,VALID,917.995,VALID,0,VALID,97.656,VALID,0,VALID,18.7669,VALID,108,VALID,0,
2011-08-23, 01:15:05,VALID,917.967,VALID,0,VALID,97.656,VALID,0,VALID,18.7279,VALID,108,VALID,0,
2011-08-23, 01:16:05,VALID,917.96,VALID,0,VALID,97.656,VALID,0,VALID,18.7084,VALID,108,VALID,0,
2011-08-23, 01:17:05,VALID,917.96,VALID,0,VALID,97.6255,VALID,0,VALID,18.5914,VALID,108,VALID,0,
2011-08-23, 01:18:05,VALID,917.929,VALID,0,VALID,97.6255,VALID,0,VALID,18.5525,VALID,108,VALID,0,
2011-08-23, 01:19:05,VALID,917.938,VALID,0,VALID,97.6483,VALID,0,VALID,18.533,VALID,108,VALID,0,
2011-08-23, 01:20:05,VALID,917.941,VALID,0,VALID,97.6483,VALID,0,VALID,18.5135,VALID,108,VALID,0,
2011-08-23, 01:21:05,VALID,917.917,VALID,0,VALID,97.6636,VALID,0,VALID,18.494,VALID,108,VALID,0.442578,
2011-08-23, 01:22:05,VALID,917.931,VALID,0,VALID,97.6788,VALID,0,VALID,18.494,VALID,108,VALID,0.38125,
2011-08-23, 01:23:05,VALID,917.939,VALID,0,VALID,97.656,VALID,0,VALID,18.4954,VALID,108,VALID,0.426953,
2011-08-23, 01:24:05,VALID,917.885,VALID,0,VALID,97.6483,VALID,0,VALID,18.4341,VALID,108,VALID,0.450391,
2011-08-23, 01:25:05,VALID,917.902,VALID,0,VALID,97.6788,VALID,0.214882,VALID,18.416,VALID,108,VALID,0.325,
2011-08-23, 01:26:05,VALID,917.873,VALID,0,VALID,97.6788,VALID,0.107441,VALID,18.416,VALID,108,VALID,0.210156,
2011-08-23, 01:27:05,VALID,917.846,VALID,0,VALID,97.6865,VALID,0,VALID,18.416,VALID,108,VALID,0,
2011-08-23, 01:28:05,VALID,917.849,VALID,0,VALID,97.7017,VALID,0,VALID,18.416,VALID,108,VALID,0,
2011-08-23, 01:29:05,VALID,917.855,VALID,0,VALID,97.7017,VALID,0.107441,VALID,18.4146,VALID,108,VALID,0,
2011-08-23, 01:30:05,VALID,917.874,VALID,0,VALID,97.7017,VALID,0.107441,VALID,18.4341,VALID,108,VALID,0,
2011-08-23, 01:31:05,VALID,917.842,VALID,0,VALID,97.7246,VALID,0.107441,VALID,18.455,VALID,108,VALID,0,
2011-08-23, 01:32:05,VALID,917.864,VALID,0,VALID,97.7169,VALID,0.107441,VALID,18.4341,VALID,107,VALID,0,
2011-08-23, 01:33:05,VALID,917.877,VALID,0,VALID,97.7093,VALID,0.107441,VALID,18.494,VALID,108,VALID,0,
2011-08-23, 01:34:05,VALID,917.883,VALID,0,VALID,97.7246,VALID,0.107441,VALID,18.5511,VALID,108,VALID,0,
2011-08-23, 01:35:05,VALID,917.903,VALID,0,VALID,97.7398,VALID,0.107441,VALID,18.59,VALID,107,VALID,0,
2011-08-23, 01:36:05,VALID,917.9,VALID,0,VALID,97.7398,VALID,0.107441,VALID,18.5511,VALID,108,VALID,0,
2011-08-23, 01:37:05,VALID,917.881,VALID,0,VALID,97.7322,VALID,0.107441,VALID,18.59,VALID,108,VALID,0.0480469,
2011-08-23, 01:38:05,VALID,917.875,VALID,0,VALID,97.7551,VALID,0.107441,VALID,18.6485,VALID,108,VALID,0.261328,
2011-08-23, 01:39:05,VALID,917.829,VALID,0,VALID,97.7627,VALID,0,VALID,18.7488,VALID,108,VALID,0.388672,
2011-08-23, 01:40:05,VALID,917.816,VALID,0,VALID,97.7779,VALID,0,VALID,18.7864,VALID,108,VALID,0.382422,
2011-08-23, 01:41:05,VALID,917.777,VALID,0,VALID,97.7703,VALID,0,VALID,18.8658,VALID,108,VALID,0.483984,
2011-08-23, 01:42:05,VALID,917.772,VALID,0,VALID,97.7627,VALID,0,VALID,18.9243,VALID,108,VALID,0.594141,
2011-08-23, 01:43:05,VALID,917.708,VALID,0,VALID,97.7474,VALID,0,VALID,18.9619,VALID,108,VALID,0.766016,
2011-08-23, 01:44:05,VALID,917.721,VALID,0,VALID,97.7551,VALID,0,VALID,19.0023,VALID,108,VALID,0.867578,
2011-08-23, 01:45:05,VALID,917.726,VALID,0,VALID,97.7627,VALID,0,VALID,18.9828,VALID,108,VALID,0.809375,
2011-08-23, 01:46:05,VALID,917.728,VALID,0,VALID,97.7322,VALID,0,VALID,18.9034,VALID,108,VALID,0.733203,
2011-08-23, 01:47:05,VALID,917.718,VALID,0,VALID,97.7093,VALID,0,VALID,18.8254,VALID,108,VALID,0.642969,
2011-08-23, 01:48:05,VALID,917.713,VALID,0,VALID,97.7169,VALID,0,VALID,18.7279,VALID,108,VALID,0.480469,
2011-08-23, 01:49:05,VALID,917.718,VALID,0,VALID,97.7246,VALID,0,VALID,18.7864,VALID,108,VALID,0.379297,
2011-08-23, 01:50:05,VALID,917.733,VALID,0,VALID,97.7169,VALID,0,VALID,18.8073,VALID,108,VALID,0.480078,
2011-08-23, 01:51:05,VALID,917.717,VALID,0,VALID,97.7017,VALID,0,VALID,18.8254,VALID,108,VALID,0.305859,
2011-08-23, 01:52:05,VALID,917.735,VALID,0,VALID,97.7246,VALID,0,VALID,18.7864,VALID,108,VALID,0.675391,
2011-08-23, 01:53:05,VALID,917.74,VALID,0,VALID,97.7246,VALID,0,VALID,18.7878,VALID,108,VALID,0.810938,
2011-08-23, 01:54:05,VALID,917.715,VALID,0,VALID,97.7322,VALID,0,VALID,18.8449,VALID,90,VALID,0.8,
2011-08-23, 01:55:05,VALID,917.73,VALID,0,VALID,97.7398,VALID,0,VALID,18.8644,VALID,88,VALID,0.997656,
2011-08-23, 01:56:05,VALID,917.692,VALID,0,VALID,97.7398,VALID,0.107441,VALID,18.8449,VALID,88,VALID,0.792969,
2011-08-23, 01:57:05,VALID,917.676,VALID,0,VALID,97.7093,VALID,0,VALID,18.785,VALID,88,VALID,0.553125,
2011-08-23, 01:58:05,VALID,917.665,VALID,0,VALID,97.7017,VALID,0.107441,VALID,18.7655,VALID,88,VALID,0.4875,
2011-08-23, 01:59:05,VALID,917.651,VALID,0,VALID,97.7322,VALID,0,VALID,18.7655,VALID,88,VALID,0.510156,
2011-08-23, 02:00:05,VALID,917.661,VALID,0,VALID,97.7169,VALID,0.107441,VALID,18.8059,VALID,88,VALID,0.533984,
2011-08-23, 02:01:05,VALID,917.676,VALID,0,VALID,97.7322,VALID,0,VALID,18.8254,VALID,88,VALID,0.701953,
2011-08-23, 02:02:05,VALID,917.662,VALID,0,VALID,97.7169,VALID,0,VALID,18.8045,VALID,88,VALID,0.512891,
2011-08-23, 02:03:05,VALID,917.661,VALID,0,VALID,97.7246,VALID,0,VALID,18.785,VALID,88,VALID,0.366016,
2011-08-23, 02:04:05,VALID,917.679,VALID,0,VALID,97.7322,VALID,0,VALID,18.7655,VALID,88,VALID,0.240234,
2011-08-23, 02:05:05,VALID,917.653,VALID,0,VALID,97.7322,VALID,0,VALID,18.785,VALID,88,VALID,0,
2011-08-23, 02:06:05,VALID,917.613,VALID,0,VALID,97.7246,VALID,0.107441,VALID,18.8045,VALID,88,VALID,0.0953125,
2011-08-23, 02:07:05,VALID,917.569,VALID,0,VALID,97.7322,VALID,0,VALID,18.8254,VALID,88,VALID,0,
2011-08-23, 02:08:05,VALID,917.524,VALID,0,VALID,97.7322,VALID,0,VALID,18.824,VALID,88,VALID,0,
2011-08-23, 02:09:05,VALID,917.51,VALID,0,VALID,97.7398,VALID,0.107441,VALID,18.8434,VALID,88,VALID,0.622656,
2011-08-23, 02:10:05,VALID,917.494,VALID,0,VALID,97.7551,VALID,0.107441,VALID,18.8434,VALID,88,VALID,0.855859,
2011-08-23, 02:11:05,VALID,917.506,VALID,0,VALID,97.7398,VALID,0,VALID,18.824,VALID,88,VALID,0.810547,
2011-08-23, 02:12:05,VALID,917.503,VALID,0,VALID,97.7398,VALID,0.107441,VALID,18.824,VALID,88,VALID,0.564844,
2011-08-23, 02:13:05,VALID,917.517,VALID,0,VALID,97.7322,VALID,0.107441,VALID,18.824,VALID,88,VALID,0.473047,
2011-08-23, 02:14:05,VALID,917.509,VALID,0,VALID,97.7322,VALID,0,VALID,18.8045,VALID,88,VALID,0.280469,
2011-08-23, 02:15:05,VALID,917.482,VALID,0,VALID,97.7322,VALID,0,VALID,18.785,VALID,88,VALID,0.401953,
2011-08-23, 02:16:05,VALID,917.478,VALID,0,VALID,97.7322,VALID,0,VALID,18.7669,VALID,88,VALID,0.394531,
2011-08-23, 02:17:05,VALID,917.449,VALID,0,VALID,97.7398,VALID,0,VALID,18.7265,VALID,88,VALID,0.405859,
2011-08-23, 02:18:05,VALID,917.431,VALID,0,VALID,97.7398,VALID,0,VALID,18.7265,VALID,88,VALID,0.571875,
2011-08-23, 02:19:05,VALID,917.423,VALID,0,VALID,97.7322,VALID,0,VALID,18.7265,VALID,88,VALID,0.758203,
2011-08-23, 02:20:05,VALID,917.4,VALID,0,VALID,97.7322,VALID,0.107441,VALID,18.7265,VALID,130,VALID,0.795313,
2011-08-23, 02:21:05,VALID,917.376,VALID,0,VALID,97.7322,VALID,0,VALID,18.7669,VALID,130,VALID,0.736719,
2011-08-23, 02:22:05,VALID,917.394,VALID,0,VALID,97.7551,VALID,0,VALID,18.7474,VALID,130,VALID,0.551953,
2011-08-23, 02:23:05,VALID,917.39,VALID,0,VALID,97.7474,VALID,0.107441,VALID,18.7084,VALID,130,VALID,0.70625,
2011-08-23, 02:24:05,VALID,917.399,VALID,0,VALID,97.7398,VALID,0,VALID,18.6513,VALID,130,VALID,0.724609,
2011-08-23, 02:25:05,VALID,917.387,VALID,0,VALID,97.7551,VALID,0,VALID,18.6889,VALID,129,VALID,1.16133,
2011-08-23, 02:26:05,VALID,917.351,VALID,0,VALID,97.7474,VALID,0,VALID,18.7474,VALID,130,VALID,0.970703,
2011-08-23, 02:27:05,VALID,917.339,VALID,0,VALID,97.7474,VALID,0,VALID,18.7864,VALID,130,VALID,0.754687,
2011-08-23, 02:28:05,VALID,917.312,VALID,0,VALID,97.7474,VALID,0,VALID,18.7864,VALID,130,VALID,0.828906,
2011-08-23, 02:29:05,VALID,917.321,VALID,0,VALID,97.7474,VALID,0,VALID,18.7474,VALID,130,VALID,1.03945,
2011-08-23, 02:30:05,VALID,917.3,VALID,0,VALID,97.7551,VALID,0,VALID,18.7474,VALID,130,VALID,1.06602,
2011-08-23, 02:31:05,VALID,917.317,VALID,0,VALID,97.7398,VALID,0,VALID,18.7669,VALID,130,VALID,1.12188,
2011-08-23, 02:32:05,VALID,917.309,VALID,0,VALID,97.7322,VALID,0,VALID,18.7864,VALID,130,VALID,0.654688,
2011-08-23, 02:33:05,VALID,917.341,VALID,0,VALID,97.7398,VALID,0,VALID,18.7864,VALID,130,VALID,0.861719,
2011-08-23, 02:34:05,VALID,917.342,VALID,0,VALID,97.7398,VALID,0,VALID,18.8059,VALID,130,VALID,0.845312,
2011-08-23, 02:35:05,VALID,917.376,VALID,0,VALID,97.7322,VALID,0,VALID,18.8059,VALID,130,VALID,0.813281,
2011-08-23, 02:36:05,VALID,917.343,VALID,0,VALID,97.7398,VALID,0,VALID,18.8268,VALID,130,VALID,1.05313,
2011-08-23, 02:37:05,VALID,917.336,VALID,0,VALID,97.7322,VALID,0,VALID,18.7474,VALID,129,VALID,0.944531,
2011-08-23, 02:38:04,VALID,917.345,VALID,0,VALID,97.7551,VALID,0,VALID,18.7474,VALID,130,VALID,0.876953,
2011-08-23, 02:39:04,VALID,917.329,VALID,0,VALID,97.7474,VALID,0.107441,VALID,18.7279,VALID,129,VALID,0.808984,
2011-08-23, 02:40:04,VALID,917.309,VALID,0,VALID,97.7398,VALID,0.107441,VALID,18.707,VALID,130,VALID,0.549219,
2011-08-23, 02:41:04,VALID,917.273,VALID,0,VALID,97.7474,VALID,0,VALID,18.707,VALID,130,VALID,0.662109,
2011-08-23, 02:42:04,VALID,917.295,VALID,0,VALID,97.7627,VALID,0,VALID,18.707,VALID,130,VALID,0.640625,
2011-08-23, 02:43:04,VALID,917.291,VALID,0,VALID,97.7398,VALID,0,VALID,18.7279,VALID,130,VALID,0.601172,
2011-08-23, 02:44:04,VALID,917.269,VALID,0,VALID,97.7779,VALID,0,VALID,18.7084,VALID,130,VALID,0.705078,
2011-08-23, 02:45:04,VALID,917.278,VALID,0,VALID,97.7627,VALID,0,VALID,18.6875,VALID,130,VALID,0.367578,
2011-08-23, 02:46:04,VALID,917.271,VALID,0,VALID,97.7551,VALID,0.107441,VALID,18.668,VALID,130,VALID,0.587891,
2011-08-23, 02:47:04,VALID,917.274,VALID,0,VALID,97.7551,VALID,0,VALID,18.6875,VALID,130,VALID,0.446875,
2011-08-23, 02:48:04,VALID,917.298,VALID,0,VALID,97.7551,VALID,0,VALID,18.7084,VALID,129,VALID,0.508594,
2011-08-23, 02:49:04,VALID,917.258,VALID,0,VALID,97.7551,VALID,0.107441,VALID,18.668,VALID,130,VALID,0.339844,
2011-08-23, 02:50:04,VALID,917.282,VALID,0,VALID,97.7779,VALID,0.107441,VALID,18.668,VALID,129,VALID,0.198437,
2011-08-23, 02:51:04,VALID,917.258,VALID,0,VALID,97.7627,VALID,0,VALID,18.7084,VALID,130,VALID,0.591016,
2011-08-23, 02:52:04,VALID,917.241,VALID,0,VALID,97.7627,VALID,0,VALID,18.6875,VALID,129,VALID,0.501172,
2011-08-23, 02:53:04,VALID,917.221,VALID,0,VALID,97.7627,VALID,0,VALID,18.6875,VALID,130,VALID,0.455859,
2011-08-23, 02:54:04,VALID,917.233,VALID,0,VALID,97.7474,VALID,0.107441,VALID,18.7279,VALID,130,VALID,0.590234,
2011-08-23, 02:55:04,VALID,917.215,VALID,0,VALID,97.7703,VALID,0,VALID,18.7279,VALID,130,VALID,0.425781,
2011-08-23, 02:56:04,VALID,917.226,VALID,0,VALID,97.7627,VALID,0,VALID,18.707,VALID,130,VALID,0.345313,
2011-08-23, 02:57:04,VALID,917.213,VALID,0,VALID,97.7703,VALID,0,VALID,18.7084,VALID,129,VALID,0.338672,
2011-08-23, 02:58:04,VALID,917.231,VALID,0,VALID,97.7779,VALID,0,VALID,18.6485,VALID,130,VALID,0.585938,
2011-08-23, 02:59:04,VALID,917.218,VALID,0,VALID,97.7779,VALID,0,VALID,18.6499,VALID,130,VALID,0.808203,
2011-08-23, 03:00:04,VALID,917.248,VALID,0,VALID,97.7627,VALID,0,VALID,18.6499,VALID,130,VALID,0.608203,
2011-08-23, 03:01:04,VALID,917.215,VALID,0,VALID,97.7779,VALID,0,VALID,18.6304,VALID,130,VALID,0.605469,
2011-08-23, 03:02:04,VALID,917.249,VALID,0,VALID,97.7703,VALID,0.107441,VALID,18.6499,VALID,130,VALID,0.810547,
2011-08-23, 03:03:04,VALID,917.257,VALID,0,VALID,97.7703,VALID,0,VALID,18.5914,VALID,130,VALID,0.456641,
2011-08-23, 03:04:04,VALID,917.226,VALID,0,VALID,97.7779,VALID,0.107441,VALID,18.6109,VALID,130,VALID,0.461328,
2011-08-23, 03:05:04,VALID,917.232,VALID,0,VALID,97.7779,VALID,0.107441,VALID,18.59,VALID,130,VALID,0.221484,
2011-08-23, 03:06:04,VALID,917.245,VALID,0,VALID,97.7932,VALID,0,VALID,18.572,VALID,130,VALID,0.383203,
2011-08-23, 03:07:04,VALID,917.26,VALID,0,VALID,97.7932,VALID,0,VALID,18.5511,VALID,130,VALID,0.531641,
2011-08-23, 03:08:04,VALID,917.274,VALID,0,VALID,97.7779,VALID,0,VALID,18.5525,VALID,130,VALID,0.56875,
2011-08-23, 03:09:04,VALID,917.249,VALID,0,VALID,97.7779,VALID,0,VALID,18.5344,VALID,130,VALID,0.559766,
2011-08-23, 03:10:04,VALID,917.237,VALID,0,VALID,97.7703,VALID,0,VALID,18.5135,VALID,130,VALID,0.348047,
2011-08-23, 03:11:04,VALID,917.212,VALID,0,VALID,97.7779,VALID,0,VALID,18.5344,VALID,129,VALID,0.580859,
2011-08-23, 03:12:04,VALID,917.198,VALID,0,VALID,97.816,VALID,0,VALID,18.5539,VALID,129,VALID,0.674219,
2011-08-23, 03:13:04,VALID,917.177,VALID,0,VALID,97.8008,VALID,0,VALID,18.5929,VALID,130,VALID,0.575,
2011-08-23, 03:14:04,VALID,917.172,VALID,0,VALID,97.8237,VALID,0,VALID,18.5539,VALID,129,VALID,0.719922,
2011-08-23, 03:15:04,VALID,917.151,VALID,0,VALID,97.7856,VALID,0,VALID,18.5929,VALID,129,VALID,0.747266,
2011-08-23, 03:16:04,VALID,917.15,VALID,0,VALID,97.8008,VALID,0,VALID,18.6513,VALID,130,VALID,0.664063,
2011-08-23, 03:17:04,VALID,917.156,VALID,0,VALID,97.7932,VALID,0,VALID,18.6708,VALID,129,VALID,0.990625,
2011-08-23, 03:18:04,VALID,917.154,VALID,0,VALID,97.8008,VALID,0,VALID,18.6708,VALID,121,VALID,1.05195,
2011-08-23, 03:19:04,VALID,917.157,VALID,0,VALID,97.7932,VALID,0,VALID,18.7098,VALID,98,VALID,1.19687,
2011-08-23, 03:20:04,VALID,917.122,VALID,0,VALID,97.8008,VALID,0,VALID,18.7293,VALID,99,VALID,1.31172,
2011-08-23, 03:21:04,VALID,917.152,VALID,0,VALID,97.7856,VALID,0,VALID,18.7488,VALID,98,VALID,0.886719,
2011-08-23, 03:22:04,VALID,917.097,VALID,0,VALID,97.8008,VALID,0,VALID,18.7098,VALID,98,VALID,0.873828,
2011-08-23, 03:23:04,VALID,917.08,VALID,0,VALID,97.8008,VALID,0,VALID,18.6708,VALID,99,VALID,0.784766,
2011-08-23, 03:24:04,VALID,917.083,VALID,0,VALID,97.7856,VALID,0,VALID,18.6694,VALID,98,VALID,0.635547,
2011-08-23, 03:25:04,VALID,917.06,VALID,0,VALID,97.7856,VALID,0,VALID,18.6499,VALID,99,VALID,0.563281,
2011-08-23, 03:26:04,VALID,917.055,VALID,0,VALID,97.7932,VALID,0,VALID,18.6499,VALID,98,VALID,0.962109,
2011-08-23, 03:27:04,VALID,917.054,VALID,0,VALID,97.8008,VALID,0,VALID,18.6499,VALID,98,VALID,0.977344,
2011-08-23, 03:28:04,VALID,917.07,VALID,0,VALID,97.7932,VALID,0,VALID,18.6304,VALID,98,VALID,0.750391,
2011-08-23, 03:29:04,VALID,917.021,VALID,0,VALID,97.8084,VALID,0,VALID,18.6499,VALID,131,VALID,1.24297,
2011-08-23, 03:30:04,VALID,916.995,VALID,0,VALID,97.7932,VALID,0,VALID,18.6889,VALID,130,VALID,1.00273,
2011-08-23, 03:31:04,VALID,916.974,VALID,0,VALID,97.7932,VALID,0,VALID,18.6694,VALID,130,VALID,0.879687,
2011-08-23, 03:32:04,VALID,916.949,VALID,0,VALID,97.7932,VALID,0,VALID,18.6499,VALID,131,VALID,0.802344,
2011-08-23, 03:33:04,VALID,916.946,VALID,0,VALID,97.7932,VALID,0,VALID,18.6109,VALID,131,VALID,0.628516,
2011-08-23, 03:34:04,VALID,916.922,VALID,0,VALID,97.7779,VALID,0,VALID,18.5914,VALID,131,VALID,0.500391,
2011-08-23, 03:35:04,VALID,916.932,VALID,0,VALID,97.7932,VALID,0,VALID,18.572,VALID,131,VALID,0.614062,
2011-08-23, 03:36:04,VALID,916.922,VALID,0,VALID,97.7856,VALID,0,VALID,18.5525,VALID,130,VALID,0.644531,
2011-08-23, 03:37:04,VALID,916.903,VALID,0,VALID,97.7932,VALID,0,VALID,18.533,VALID,130,VALID,0.323438,
2011-08-23, 03:38:04,VALID,916.917,VALID,0,VALID,97.7856,VALID,0,VALID,18.5121,VALID,130,VALID,0.533594,
2011-08-23, 03:39:04,VALID,916.895,VALID,0,VALID,97.8084,VALID,0,VALID,18.533,VALID,130,VALID,0.721875,
2011-08-23, 03:40:04,VALID,916.906,VALID,0,VALID,97.7856,VALID,0,VALID,18.4745,VALID,131,VALID,0.513672,
2011-08-23, 03:41:04,VALID,916.894,VALID,0,VALID,97.7856,VALID,0,VALID,18.4355,VALID,130,VALID,0.805078,
2011-08-23, 03:42:04,VALID,916.906,VALID,0,VALID,97.8008,VALID,0.107441,VALID,18.455,VALID,131,VALID,0.971484,
2011-08-23, 03:43:04,VALID,916.913,VALID,0,VALID,97.8084,VALID,0,VALID,18.455,VALID,130,VALID,0.500391,
2011-08-23, 03:44:04,VALID,916.915,VALID,0,VALID,97.8008,VALID,0,VALID,18.416,VALID,130,VALID,0.641406,